Volver al catálogo

STARLINK-30897

ActivoComunicacionesVLEO
NORAD 58360·PAYLOAD·🇺🇸 United States

Lanzado Nov 18, 2023 desde Cape Canaveral Space Force Station

Loading…

Próximos Pases (próximas 24 horas)

TLE

ActualizadoSource: CelesTrak SupGP

Época: Sep 15, 2026, 03:06 UTC

1 58360C 23177K   26258.12965278 -.00109590  00000+0 -39724-2 0  2585
2 58360  43.0040  15.3898 0001694 253.7626 254.8724 15.27607866    11

Sigue STARLINK-30897 en tiempo real con AllMySat

Download on the App Store